| time (UTC) | temp C | wind direction | speed KPH | gust KPH | rain 1hr cm | rain 24hr cm | rain mn cm | humidity % | barometer mb |
| 20260504110400 | 8 | 142 | 4.8 | 12.9 | 0.00 | 0.00 | 0.00 | 80 | 1002.3 |
| 20260504100400 | 8 | 157 | 4.8 | 9.7 | 0.00 | 0.00 | 0.00 | 79 | 1002.4 |
| 20260504081934 | 10 | 141 | 6.4 | 11.3 | 0.00 | 0.00 | 0.00 | 74 | 1002.8 |
| 20260504081434 | 10 | 146 | 6.4 | 11.3 | 0.00 | 0.00 | 0.00 | 73 | 1002.9 |
| 20260504080441 | 10 | 141 | 4.8 | 11.3 | 0.00 | 0.00 | 0.00 | 74 | 1002.9 |
| 20260504070246 | 10 | 140 | 6.4 | 11.3 | 0.00 | 0.00 | 0.00 | 73 | 1003.6 |
| 20260504050442 | 10 | 160 | 12.9 | 20.9 | 0.00 | 0.00 | 0.00 | 73 | 1005.0 |
| 20260504045943 | 10 | 168 | 11.3 | 19.3 | 0.00 | 0.00 | 0.00 | 73 | 1005.0 |
| 20260504045442 | 10 | 164 | 11.3 | 17.7 | 0.00 | 0.00 | 0.00 | 73 | 1005.1 |
| 20260504044943 | 10 | 166 | 11.3 | 19.3 | 0.00 | 0.00 | 0.00 | 73 | 1005.1 |
| 20260504044442 | 10 | 167 | 11.3 | 19.3 | 0.00 | 0.00 | 0.00 | 73 | 1005.1 |
| 20260504043942 | 10 | 170 | 11.3 | 19.3 | 0.00 | 0.00 | 0.00 | 73 | 1005.2 |
| 20260504043442 | 10 | 164 | 9.7 | 17.7 | 0.00 | 0.00 | 0.00 | 73 | 1005.2 |
| 20260504042442 | 10 | 159 | 9.7 | 17.7 | 0.00 | 0.00 | 0.00 | 73 | 1005.3 |
| 20260504041055 | 10 | 154 | 9.7 | 16.1 | 0.00 | 0.00 | 0.00 | 74 | 1005.4 |
| 20260504040553 | 10 | 160 | 9.7 | 16.1 | 0.00 | 0.00 | 0.00 | 73 | 1005.4 |
| 20260504040053 | 10 | 161 | 9.7 | 16.1 | 0.00 | 0.00 | 0.00 | 73 | 1005.5 |
| 20260504035553 | 10 | 152 | 9.7 | 16.1 | 0.00 | 0.00 | 0.00 | 73 | 1005.5 |
| 20260504035053 | 10 | 157 | 9.7 | 16.1 | 0.00 | 0.00 | 0.00 | 72 | 1005.5 |
| 20260504034553 | 10 | 162 | 9.7 | 16.1 | 0.00 | 0.00 | 0.00 | 72 | 1005.6 |
| 20260504034053 | 10 | 166 | 8.0 | 14.5 | 0.00 | 0.00 | 0.00 | 72 | 1005.6 |
| 20260504033553 | 10 | 163 | 9.7 | 17.7 | 0.00 | 0.00 | 0.00 | 72 | 1005.6 |
| 20260504033053 | 10 | 157 | 9.7 | 17.7 | 0.00 | 0.00 | 0.00 | 71 | 1005.6 |
| 20260504032553 | 10 | 152 | 11.3 | 17.7 | 0.00 | 0.00 | 0.00 | 71 | 1005.6 |
| 20260504032053 | 10 | 160 | 9.7 | 17.7 | 0.00 | 0.00 | 0.00 | 71 | 1005.7 |
| 20260504031553 | 10 | 157 | 8.0 | 16.1 | 0.00 | 0.00 | 0.00 | 71 | 1005.7 |
| 20260504031053 | 10 | 153 | 8.0 | 17.7 | 0.00 | 0.00 | 0.00 | 70 | 1005.8 |
| 20260504030553 | 10 | 147 | 9.7 | 17.7 | 0.00 | 0.00 | 0.00 | 70 | 1005.7 |
| 20260504030053 | 10 | 162 | 8.0 | 16.1 | 0.00 | 0.00 | 0.00 | 70 | 1005.7 |
| 20260504025553 | 11 | 156 | 9.7 | 17.7 | 0.00 | 0.00 | 0.00 | 70 | 1005.8 |
| 20260504025053 | 11 | 152 | 12.9 | 19.3 | 0.00 | 0.00 | 0.00 | 69 | 1005.8 |
| 20260504024553 | 11 | 151 | 12.9 | 25.7 | 0.00 | 0.00 | 0.00 | 69 | 1005.8 |
| 20260504024053 | 11 | 150 | 12.9 | 25.7 | 0.00 | 0.00 | 0.00 | 69 | 1005.9 |
| 20260504023553 | 11 | 151 | 11.3 | 22.5 | 0.00 | 0.00 | 0.00 | 69 | 1005.9 |
| 20260504023054 | 11 | 166 | 14.5 | 22.5 | 0.00 | 0.00 | 0.00 | 69 | 1006.0 |
| 20260504022553 | 11 | 166 | 11.3 | 22.5 | 0.00 | 0.00 | 0.00 | 69 | 1005.9 |
| 20260504022053 | 11 | 158 | 16.1 | 22.5 | 0.00 | 0.00 | 0.00 | 68 | 1005.9 |
| 20260504021553 | 11 | 161 | 14.5 | 22.5 | 0.00 | 0.00 | 0.00 | 69 | 1005.9 |
| 20260504021053 | 11 | 161 | 12.9 | 20.9 | 0.00 | 0.00 | 0.00 | 68 | 1005.8 |
| 20260504020553 | 11 | 165 | 14.5 | 25.7 | 0.00 | 0.00 | 0.00 | 68 | 1005.8 |
| 20260504020053 | 11 | 160 | 17.7 | 25.7 | 0.00 | 0.00 | 0.00 | 68 | 1005.8 |
| 20260504015553 | 11 | 154 | 11.3 | 30.6 | 0.00 | 0.00 | 0.00 | 68 | 1005.8 |
| 20260504015053 | 12 | 157 | 14.5 | 30.6 | 0.00 | 0.00 | 0.00 | 68 | 1005.7 |
| 20260504014553 | 12 | 162 | 17.7 | 25.7 | 0.00 | 0.00 | 0.00 | 67 | 1005.7 |
| 20260504014053 | 12 | 161 | 16.1 | 27.4 | 0.00 | 0.00 | 0.00 | 67 | 1005.6 |
| 20260504013553 | 12 | 156 | 19.3 | 27.4 | 0.00 | 0.00 | 0.00 | 67 | 1005.6 |
| 20260504013055 | 12 | 158 | 16.1 | 29.0 | 0.00 | 0.00 | 0.00 | 67 | 1005.6 |
| 20260504012053 | 12 | 156 | 16.1 | 27.4 | 0.00 | 0.00 | 0.00 | 66 | 1005.6 |
| 20260504011553 | 12 | 161 | 14.5 | 27.4 | 0.00 | 0.00 | 0.00 | 66 | 1005.7 |
| 20260504011053 | 12 | 166 | 20.9 | 27.4 | 0.00 | 0.00 | 0.00 | 66 | 1005.8 |
| 20260504010553 | 12 | 162 | 17.7 | 30.6 | 0.00 | 0.00 | 0.00 | 66 | 1005.7 |
| 20260504010053 | 12 | 166 | 20.9 | 30.6 | 0.00 | 0.00 | 0.00 | 65 | 1005.7 |
| 20260504005053 | 12 | 168 | 19.3 | 35.4 | 0.00 | 0.00 | 0.00 | 64 | 1005.8 |
| 20260504004553 | 12 | 165 | 20.9 | 32.2 | 0.00 | 0.00 | 0.00 | 64 | 1005.8 |
| 20260504004053 | 12 | 168 | 24.1 | 32.2 | 0.00 | 0.00 | 0.00 | 63 | 1005.8 |
| 20260504003553 | 13 | 170 | 17.7 | 32.2 | 0.00 | 0.00 | 0.00 | 63 | 1005.9 |
| 20260504003053 | 13 | 162 | 19.3 | 35.4 | 0.00 | 0.00 | 0.00 | 63 | 1005.9 |
| 20260504002553 | 13 | 169 | 25.7 | 37.0 | 0.00 | 0.00 | 0.00 | 62 | 1005.8 |
| 20260504002053 | 13 | 170 | 25.7 | 37.0 | 0.00 | 0.00 | 0.00 | 62 | 1005.8 |
| 20260504001553 | 13 | 168 | 19.3 | 45.1 | 0.00 | 0.00 | 0.00 | 62 | 1006.0 |
| 20260504001055 | 13 | 180 | 24.1 | 45.1 | 0.00 | 0.00 | 0.00 | 61 | 1006.1 |
| 20260504000553 | 13 | 166 | 19.3 | 43.5 | 0.00 | 0.00 | 0.00 | 61 | 1006.2 |
| 20260504000053 | 13 | 180 | 27.4 | 43.5 | 0.00 | 0.00 | 0.00 | 60 | 1006.2 |
| 20260503235134 | 13 | 175 | 27.4 | 41.8 | 0.00 | 0.00 | 0.00 | 60 | 1006.1 |
| 20260503234636 | 13 | 169 | 25.7 | 38.6 | 0.00 | 0.00 | 0.00 | 60 | 1006.2 |
| 20260503234134 | 13 | 169 | 24.1 | 38.6 | 0.00 | 0.00 | 0.00 | 60 | 1006.2 |
| 20260503233635 | 13 | 171 | 27.4 | 37.0 | 0.00 | 0.00 | 0.00 | 60 | 1006.3 |
| 20260503233134 | 13 | 169 | 22.5 | 41.8 | 0.00 | 0.00 | 0.00 | 61 | 1006.3 |
| 20260503232634 | 13 | 164 | 22.5 | 41.8 | 0.00 | 0.00 | 0.00 | 60 | 1006.4 |
| 20260503232134 | 13 | 175 | 22.5 | 41.8 | 0.00 | 0.00 | 0.00 | 60 | 1006.5 |
| 20260503231634 | 13 | 182 | 20.9 | 43.5 | 0.00 | 0.00 | 0.00 | 60 | 1006.6 |
| 20260503231134 | 13 | 166 | 25.7 | 43.5 | 0.00 | 0.00 | 0.00 | 61 | 1006.6 |
| 20260503230543 | 13 | 165 | 20.9 | 38.6 | 0.00 | 0.00 | 0.00 | 60 | 1006.8 |
| 20260503230000 | 13 | 167 | 25.7 | 35.4 | 0.00 | 0.00 | 0.00 | 60 | 1006.9 |
| 20260503225248 | 13 | 171 | 22.5 | 38.6 | 0.00 | 0.00 | 0.00 | 61 | 1006.9 |
| 20260503224748 | 13 | 167 | 22.5 | 46.7 | 0.00 | 0.00 | 0.00 | 61 | 1007.0 |
| 20260503224248 | 13 | 177 | 24.1 | 46.7 | 0.00 | 0.00 | 0.00 | 60 | 1007.2 |
| 20260503223748 | 13 | 168 | 30.6 | 48.3 | 0.00 | 0.00 | 0.00 | 60 | 1007.3 |
| 20260503223248 | 13 | 174 | 33.8 | 48.3 | 0.00 | 0.00 | 0.00 | 60 | 1007.4 |
| 20260503222748 | 13 | 173 | 25.7 | 38.6 | 0.00 | 0.00 | 0.00 | 60 | 1007.4 |
| 20260503222248 | 13 | 174 | 22.5 | 41.8 | 0.00 | 0.00 | 0.00 | 61 | 1007.6 |
| 20260503221748 | 13 | 173 | 25.7 | 41.8 | 0.00 | 0.00 | 0.00 | 61 | 1007.6 |
| 20260503221248 | 13 | 171 | 25.7 | 41.8 | 0.00 | 0.00 | 0.00 | 61 | 1007.7 |
| 20260503220748 | 13 | 161 | 32.2 | 46.7 | 0.00 | 0.00 | 0.00 | 60 | 1007.7 |
| 20260503220248 | 13 | 171 | 29.0 | 46.7 | 0.00 | 0.00 | 0.00 | 61 | 1007.8 |
| 20260503215748 | 13 | 163 | 25.7 | 48.3 | 0.00 | 0.00 | 0.00 | 61 | 1007.9 |
| 20260503215248 | 12 | 177 | 25.7 | 56.3 | 0.00 | 0.00 | 0.00 | 62 | 1007.8 |
| 20260503214748 | 12 | 166 | 29.0 | 56.3 | 0.00 | 0.00 | 0.00 | 62 | 1007.9 |
| 20260503214248 | 12 | 164 | 32.2 | 51.5 | 0.00 | 0.00 | 0.00 | 61 | 1007.9 |
| 20260503213748 | 12 | 162 | 29.0 | 38.6 | 0.00 | 0.00 | 0.00 | 62 | 1007.9 |
| 20260503213248 | 12 | 174 | 25.7 | 45.1 | 0.00 | 0.00 | 0.00 | 62 | 1007.9 |
| 20260503212748 | 12 | 173 | 29.0 | 45.1 | 0.00 | 0.00 | 0.00 | 62 | 1007.9 |
| 20260503212248 | 12 | 179 | 19.3 | 40.2 | 0.00 | 0.00 | 0.00 | 63 | 1008.0 |
| 20260503211748 | 12 | 170 | 24.1 | 43.5 | 0.00 | 0.00 | 0.00 | 62 | 1008.0 |
| 20260503211248 | 12 | 175 | 30.6 | 43.5 | 0.00 | 0.00 | 0.00 | 62 | 1008.0 |
| 20260503210748 | 12 | 177 | 20.9 | 37.0 | 0.00 | 0.00 | 0.00 | 63 | 1008.0 |
| 20260503210248 | 12 | 181 | 24.1 | 37.0 | 0.00 | 0.00 | 0.00 | 63 | 1008.0 |
| 20260503205748 | 12 | 171 | 20.9 | 32.2 | 0.00 | 0.00 | 0.00 | 63 | 1008.0 |
| 20260503205248 | 12 | 173 | 17.7 | 37.0 | 0.00 | 0.00 | 0.00 | 64 | 1008.1 |
| 20260503204748 | 12 | 189 | 25.7 | 37.0 | 0.00 | 0.00 | 0.00 | 63 | 1008.3 |
| 20260503204248 | 12 | 175 | 25.7 | 38.6 | 0.00 | 0.00 | 0.00 | 63 | 1008.4 |
| 20260503203748 | 12 | 182 | 22.5 | 38.6 | 0.00 | 0.00 | 0.00 | 63 | 1008.4 |
| 20260503203248 | 12 | 180 | 25.7 | 38.6 | 0.00 | 0.00 | 0.00 | 64 | 1008.6 |
| 20260503202748 | 12 | 179 | 22.5 | 32.2 | 0.00 | 0.00 | 0.00 | 65 | 1008.7 |
| 20260503202248 | 12 | 187 | 20.9 | 30.6 | 0.00 | 0.00 | 0.00 | 65 | 1008.8 |
| 20260503201748 | 12 | 193 | 17.7 | 30.6 | 0.00 | 0.00 | 0.00 | 66 | 1008.9 |
| 20260503201248 | 12 | 192 | 20.9 | 35.4 | 0.00 | 0.00 | 0.00 | 66 | 1009.0 |
| 20260503200748 | 12 | 207 | 25.7 | 35.4 | 0.00 | 0.00 | 0.00 | 65 | 1009.2 |
| 20260503200248 | 12 | 201 | 19.3 | 33.8 | 0.00 | 0.00 | 0.00 | 64 | 1009.4 |
| 20260503195748 | 12 | 206 | 19.3 | 33.8 | 0.00 | 0.00 | 0.00 | 63 | 1009.5 |
| 20260503195248 | 12 | 219 | 24.1 | 40.2 | 0.00 | 0.00 | 0.00 | 62 | 1009.7 |
| 20260503194748 | 12 | 223 | 27.4 | 41.8 | 0.00 | 0.00 | 0.00 | 62 | 1009.7 |
| 20260503194248 | 12 | 226 | 24.1 | 48.3 | 0.00 | 0.00 | 0.00 | 62 | 1009.7 |
| 20260503193748 | 13 | 218 | 29.0 | 48.3 | 0.00 | 0.00 | 0.00 | 59 | 1009.7 |
| 20260503193248 | 13 | 205 | 30.6 | 46.7 | 0.00 | 0.00 | 0.00 | 58 | 1009.6 |
| 20260503192748 | 13 | 222 | 30.6 | 48.3 | 0.00 | 0.00 | 0.00 | 57 | 1009.9 |
| 20260503192248 | 14 | 227 | 30.6 | 53.1 | 0.00 | 0.00 | 0.00 | 57 | 1009.9 |
| 20260503191748 | 14 | 215 | 32.2 | 53.1 | 0.00 | 0.00 | 0.00 | 54 | 1009.7 |
| 20260503191248 | 14 | 225 | 30.6 | 51.5 | 0.00 | 0.00 | 0.00 | 54 | 1009.8 |
| 20260503190748 | 14 | 224 | 35.4 | 56.3 | 0.00 | 0.00 | 0.00 | 54 | 1009.9 |
| 20260503190248 | 14 | 239 | 32.2 | 56.3 | 0.00 | 0.00 | 0.00 | 55 | 1009.8 |
| 20260503185748 | 15 | 230 | 33.8 | 56.3 | 0.00 | 0.00 | 0.00 | 54 | 1010.0 |
| 20260503185248 | 15 | 222 | 40.2 | 56.3 | 0.00 | 0.00 | 0.00 | 52 | 1010.0 |
| 20260503184748 | 15 | 224 | 32.2 | 56.3 | 0.00 | 0.00 | 0.00 | 52 | 1010.1 |
| 20260503184248 | 15 | 217 | 29.0 | 56.3 | 0.00 | 0.00 | 0.00 | 52 | 1010.0 |
| 20260503183731 | 15 | 216 | 32.2 | 51.5 | 0.00 | 0.00 | 0.00 | 52 | 1010.0 |
| 20260503183138 | 15 | 206 | 37.0 | 54.7 | 0.00 | 0.00 | 0.00 | 52 | 1009.9 |
| 20260503182340 | 15 | 228 | 35.4 | 53.1 | 0.00 | 0.00 | 0.00 | 51 | 1010.0 |
| 20260503181839 | 15 | 212 | 40.2 | 53.1 | 0.00 | 0.00 | 0.00 | 50 | 1010.0 |
| 20260503181339 | 15 | 218 | 35.4 | 57.9 | 0.00 | 0.00 | 0.00 | 51 | 1010.1 |
| 20260503180839 | 15 | 234 | 38.6 | 57.9 | 0.00 | 0.00 | 0.00 | 50 | 1010.2 |
| 20260503180339 | 15 | 229 | 32.2 | 51.5 | 0.00 | 0.00 | 0.00 | 52 | 1010.1 |
| 20260503175839 | 15 | 227 | 32.2 | 56.3 | 0.00 | 0.00 | 0.00 | 50 | 1010.3 |
| 20260503175339 | 15 | 233 | 38.6 | 56.3 | 0.00 | 0.00 | 0.00 | 51 | 1010.2 |
| 20260503174839 | 15 | 222 | 32.2 | 56.3 | 0.00 | 0.00 | 0.00 | 49 | 1010.1 |
| 20260503174339 | 15 | 227 | 33.8 | 53.1 | 0.00 | 0.00 | 0.00 | 50 | 1010.3 |
| 20260503173839 | 15 | 243 | 27.4 | 54.7 | 0.00 | 0.00 | 0.00 | 49 | 1010.3 |
| 20260503173339 | 15 | 210 | 35.4 | 54.7 | 0.00 | 0.00 | 0.00 | 50 | 1010.3 |
| 20260503172839 | 15 | 207 | 37.0 | 51.5 | 0.00 | 0.00 | 0.00 | 49 | 1010.4 |
| 20260503172339 | 15 | 226 | 38.6 | 49.9 | 0.00 | 0.00 | 0.00 | 49 | 1010.6 |
| 20260503171839 | 15 | 239 | 32.2 | 46.7 | 0.00 | 0.00 | 0.00 | 50 | 1010.6 |
| 20260503171339 | 15 | 231 | 32.2 | 46.7 | 0.00 | 0.00 | 0.00 | 51 | 1010.7 |
| 20260503170456 | 15 | 233 | 27.4 | 41.8 | 0.00 | 0.00 | 0.00 | 53 | 1010.5 |
| 20260503150809 | 13 | 214 | 22.5 | 48.3 | 0.00 | 0.00 | 0.00 | 50 | 1011.3 |
| 20260503150309 | 13 | 222 | 30.6 | 48.3 | 0.00 | 0.00 | 0.00 | 48 | 1011.3 |
| 20260503140309 | 11 | 206 | 25.7 | 40.2 | 0.00 | 0.00 | 0.00 | 51 | 1011.9 |
| 20260503131141 | 11 | 217 | 19.3 | 33.8 | 0.00 | 0.00 | 0.00 | 55 | 1012.1 |
| 20260503130641 | 11 | 212 | 22.5 | 33.8 | 0.00 | 0.00 | 0.00 | 55 | 1012.1 |
| 20260503130141 | 10 | 215 | 24.1 | 33.8 | 0.00 | 0.00 | 0.00 | 55 | 1012.1 |